Regional Weather Roundup
Issued by NWS

Home | Current Version | Previous Version | Text Only | Print | Product List | Glossary On
Versions: 1 2 3 4 5 6 7 8 9 10 11 12 13 14 15 16 17 18 19 20 21 22 23 24 25 26 27 28 29 30 31 32 33 34 35 36 37 38 39 40 41 42 43 44 45 46 47 48 49 50
000
ASUS45 KCYS 282110
RWRWY

WYOMING REGIONAL WEATHER ROUNDUP
NATIONAL WEATHER SERVICE CHEYENNE WY
200 PM MST SAT FEB 28 2015

NOTE:  "FAIR" INDICATES FEW OR NO CLOUDS BELOW 12,000 FEET
WITH NO SIGNIFICANT WEATHER AND/OR OBSTRUCTIONS TO VISIBILITY.

WYZ001-282200-
YELLOWSTONE NATIONAL PARK

CITY           SKY/WX    TMP DP  RH WIND       PRES   REMARKS
LK YELLOWSTONE   N/A     20   6  55 VRB5      29.78F WCI  13
W YELLOWSTONE  NOT AVBL

$$
WYZ002>013-054>058-071-098>099-282200-
NORTHERN WYOMING

CITY           SKY/WX    TMP DP  RH WIND       PRES   REMARKS
JACKSON        PTSUNNY   23  10  58 CALM      29.79F
CODY           PTSUNNY   19  12  73 NE5       29.98S WCI  13
GREYBULL       FAIR      27   8  44 VRB5      30.03F WCI  22
WORLAND        CLOUDY    24  11  57 CALM      30.01F
SHERIDAN       CLOUDY    19   7  59 N5        30.08F WCI  12
BUFFALO        PTSUNNY   16   7  67 N5        30.02S WCI   9
GILLETTE       PTSUNNY   18   7  62 N9        30.04F WCI   7
HULETT         CLOUDY    19   9  63 W6        30.05F WCI  11
NEWCASTLE      FAIR      25   9  50 NW16G22   30.02F WCI  12

$$
WYZ014>020-022>026-101>103-282200-
CENTRAL WYOMING

CITY           SKY/WX    TMP DP  RH WIND       PRES   REMARKS
BIG PINEY      CLOUDY    25  15  66 N8        29.79F WCI  16
PINEDALE       CLOUDY    25  16  68 N5        29.79S WCI  19
DUBOIS         CLOUDY    19   9  63 S5        29.82F WCI  13
LANDER         CLOUDY    20  11  68 VRB3      29.91F
RIVERTON       FAIR      20  10  65 NE7       29.94F WCI  11
CASPER         PTSUNNY   21   8  57 NE10      29.95F WCI  10
DOUGLAS        FAIR      23   8  52 NE5       30.00F WCI  17

$$
WYZ021-027>030-104>119-282200-
SOUTHERN WYOMING

CITY           SKY/WX    TMP DP  RH WIND       PRES   REMARKS
EVANSTON       PTSUNNY   28  17  63 E16       29.72F WCI  16
KEMMERER       FAIR      28  16  59 NE16      29.74  WCI  17
FORT BRIDGER   MOCLDY    30  19  65 E6        29.76F WCI  24
ROCK SPRINGS   CLOUDY    25  13  60 NE16G25   29.78F WCI  12
DIXON          FAIR      38  13  36 CALM      29.75F
RAWLINS        CLOUDY    29   9  43 NE15G24   29.79F WCI  18
SARATOGA       FAIR      32  14  47 N9        29.76F WCI  24
LARAMIE        FAIR      21   9  59 S20       29.78F WCI   6
CHEYENNE       CLOUDY    20  10  65 NE8       29.90F WCI  10
TORRINGTON     FAIR      30  10  43 VRB5      30.00F WCI  25
PINE BLUFFS    FAIR      27  14  59 N9        29.95F WCI  17

$$



USA.gov is the U.S. government's official web portal to all federal, state and local government web resources and services.